Hourly Data Report for July 29, 2017

PITT MEADOWS CS
BRITISH COLUMBIA

49°12'29.964" N
122°41'24.076" W
5.00 m
1106178
71775
WMM

Download Data

Hourly Data (July 2017)
Hourly Data Report for July 29, 2017
TIME
LST
Temp Definition
°C
Dew Point Definition
°C
Rel Hum Definition
%
Precip. Amount Definition
mm

Wind Dir Definition
10's deg

Wind Spd Definition
km/h
Visibility Definition
km
Stn Press Definition
kPa
Hmdx Definition


Wind Chill Definition


Weather Definition


00:00 15.7 12.8 83 0.0   0   101.79     LegendNANA
01:00 14.2 11.9 86 0.0   0   101.79     LegendNANA
02:00 14.1 12.3 89 0.0 12 1   101.81     LegendNANA
03:00 13.9 12.3 90 0.0 0 1   101.85     LegendNANA
04:00 13.4 11.2 86 0.0 14 2   101.90     LegendNANA
05:00 12.7 10.9 89 0.0 10 3   101.91     LegendNANA
06:00 14.7 11.0 78 0.0 3 2   101.96     LegendNANA
07:00 17.0 11.7 71 0.0 8 6   102.02     LegendNANA
08:00 18.8 10.4 58 0.0 10 8   102.04     LegendNANA
09:00 20.1 10.4 54 0.0 13 8   102.06     LegendNANA
10:00 21.6 9.8 47 0.0 21 6   102.07     LegendNANA
11:00 23.3 11.1 46 0.0 23 3   102.05 25   LegendNANA
12:00 24.1 11.0 44 0.0 24 7   102.03 26   LegendNANA
13:00 25.6 10.5 39 0.0 22 7   102.01 27   LegendNANA
14:00 25.7 11.1 40 0.0 19 9   102.01 28   LegendNANA
15:00 25.8 9.7 36 0.0 21 7   101.98 27   LegendNANA
16:00 26.1 8.5 33 0.0 22 8   101.94 27   LegendNANA
17:00 25.3 8.1 33 0.0 22 7   101.91 26   LegendNANA
18:00 25.0 7.9 34 0.0 22 6   101.90 25   LegendNANA
19:00 24.4 8.4 36 0.0 25 5   101.92 25   LegendNANA
20:00 21.1 10.3 50 0.0 12 2   101.96     LegendNANA
21:00 19.8 12.8 64 0.0 9 3   101.99     LegendNANA
22:00 18.9 13.4 70 0.0 10 5   102.03     LegendNANA
23:00 18.2 13.4 74 0.0 11 5   102.06     LegendNANA

Notes on Data Quality.

Legend

  • E = Estimated
  • M = Missing
  • NA = Not Available*
  • [empty] = Indicates an unobserved value
Date modified: